Miscellaneous Local Product
Issued by NWS Hastings, NE

Home | Current Version | Previous Version | Text Only | Print | Product List | Glossary Off
Versions: 1 2 3 4 5 6 7 8 9 10 11 12 13 14 15 16 17 18 19 20 21 22 23 24 25 26 27 28 29 30 31 32 33 34 35 36 37 38 39 40 41 42 43 44 45 46 47 48 49 50

000
AXUS43 KGID 192002
MISGRI

GID CWA HOURLY WEATHER ROUNDUP
NATIONAL WEATHER SERVICE HASTINGS NE
200 PM CST SUN FEB 19 2017

NOTE: "FAIR" INDICATES FEW OR NO CLOUDS BELOW 12,000 FEET WITH NO
SIGNIFICANT WEATHER AND/OR OBSTRUCTIONS TO VISIBILITY.

...SOUTH CENTRAL NEBRASKA...

CITY           SKY/WX    TMP DP  RH WIND       PRES   REMARKS
GRAND ISLAND   MOSUNNY   71  47  42 S24G31    29.74F
HASTINGS       CLOUDY    69  46  43 S18G26    29.76F
KEARNEY        MOSUNNY   72  43  35 S25G32    29.72F
ORD            CLOUDY    69  43  38 S22G29    29.69F
YORK           CLOUDY    70  46  43 S22G31    29.77F
AURORA         CLOUDY    70  47  43 S18G30    29.75F
LEXINGTON      MOSUNNY   66  44  44 S25G32    29.69F
HOLDREGE       MOSUNNY   69  43  38 S18G25    29.72F
HEBRON         MOSUNNY   69  51  53 S22       29.81S

...NEBRASKA PANHANDLE...

CITY           SKY/WX    TMP DP  RH WIND       PRES   REMARKS
CHADRON        MOSUNNY   65  31  28 S14G24    29.55F
ALLIANCE       CLOUDY    61  32  33 SE6       29.60F
SCOTTSBLUFF    CLOUDY    58  33  39 CALM      29.60F
SIDNEY         CLOUDY    60  27  28 S14       29.64S

...WESTERN AND NORTH CENTRAL NEBRASKA...

CITY           SKY/WX    TMP DP  RH WIND       PRES   REMARKS
VALENTINE      CLOUDY    64  35  34 S16G22    29.59F
AINSWORTH      MOSUNNY   67  41  39 S22G29    29.62S
ONEILL         PTSUNNY   68  45  42 S21G30    29.67F
BROKEN BOW     CLOUDY    68  45  43 S28G38    29.68S
IMPERIAL       CLOUDY    59  37  44 SE10      29.66F
NORTH PLATTE   CLOUDY    62  42  47 S15G25    29.69F
MCCOOK         PTSUNNY   73  42  32 S23G32    29.68F

...EASTERN NEBRASKA...

CITY           SKY/WX    TMP DP  RH WIND       PRES   REMARKS
NORFOLK        PTSUNNY   66  47  50 S23G31    29.74F
SO SIOUX CITY  MOSUNNY   67  51  56 S20       29.78F
TEKAMAH        PTSUNNY   68  51  54 S20       29.80F
COLUMBUS       MOSUNNY   66  52  59 S18       29.77F
ALBION         MOSUNNY   68  49  50 S17G23    29.72F
OMAHA EPPLEY   CLOUDY    68  49  50 SE23      29.83S
OFFUTT AFB     MOSUNNY   69  51  52 S14       29.83F
MILLARD        MOSUNNY   71  51  50 S16       29.82F
LINCOLN        MOSUNNY   72  49  44 S23       29.80F
NEBRASKA CITY  MOSUNNY   70  43  38 S21G29    29.84F
BEATRICE       MOSUNNY   71  52  51 S15G22    29.82F
FALLS CITY     CLOUDY    70  53  54 S16G24    29.86F

...NORTHERN KANSAS...

CITY           SKY/WX    TMP DP  RH WIND       PRES   REMARKS
GOODLAND       MOSUNNY   67  42  40 S30G38    29.67F
HILL CITY      SUNNY     74  45  35 S15G22    29.72F
NORTON         CLEAR     70  39  32 SE21G26   29.72S
PHILLIPSBURG   SUNNY     72  46  40 SE15G21   29.74F
SMITH CENTER   SUNNY     70  46  43 SE17      29.77F
HAYS           SUNNY     71  48  43 S22       29.74F
RUSSELL        SUNNY     68  50  52 SE18G26   29.76F
CONCORDIA      CLOUDY    58  53  84 SE16      29.83F
SALINA         CLOUDY    62  52  69 S18G24    29.84F
TOPEKA         MOSUNNY   68  55  63 S14G20    29.88F



USA.gov is the U.S. government's official web portal to all federal, state and local government web resources and services.